Volver al catálogo

STARLINK-34591

ActivoComunicacionesVLEO
NORAD 64734·PAYLOAD·🇺🇸 United States

Lanzado Jul 2, 2025 desde Cape Canaveral Space Force Station

Loading…

Próximos Pases (próximas 24 horas)

TLE

ActualizadoSource: CelesTrak SupGP

Época: Sep 14, 2026, 21:26 UTC

1 64734C 25144L   26257.89354167  .00015949  00000+0  47147-3 0  2575
2 64734  53.1595  20.0720 0001266  91.3928 136.0873 15.34364651    19

Sigue STARLINK-34591 en tiempo real con AllMySat

Download on the App Store